Paducah, KY

5:40 PM CDT on April 29, 2017 (GMT -0500)
Barkley Regional

Weather History for KPAH - October, 2012

Change the Weather History Date:

Thursday, October 18, 2012

  Actual Average Record
Temperature  
Mean Temperature 57 °F 58 °F  
Max Temperature 65 °F 70 °F 88 °F (1938)
Min Temperature 49 °F 46 °F 27 °F (1976)
Degree Days  
Heating Degree Days 8 8  
Month to date heating degree days 142 105  
Since 1 July heating degree days 182 144  
Cooling Degree Days 0 1  
Month to date cooling degree days 8 29  
Year to date cooling degree days 1960 1529  
Growing Degree Days 6 (Base 50)    
Moisture  
Dew Point 41 °F    
Average Humidity 62    
Maximum Humidity 93    
Minimum Humidity 30    
Precipitation  
Precipitation 0.00 in 0.14 in 1.86 in (1972)
Month to date precipitation 1.98 2.35  
Year to date precipitation 23.16 38.58  
Snow  
Snow 0.00 in 0.00 in T in (2007)
Month to date snowfall 0.0 0.0  
Since 1 July snowfall 0.0 0.0  
Since 1 September snowfall 0.0 0.0  
Snow Depth 0.00 in    
Sea Level Pressure  
Sea Level Pressure 29.68 in    
Wind  
Wind Speed 11 mph (SW)    
Max Wind Speed 26 mph    
Max Gust Speed 33 mph    
Visibility 10 miles    
Events      
T = Trace of Precipitation, MM = Missing Value Source: NWS Daily Summary

Daily Weather History Graph

Daily Weather History Graph

Search for Another Location

Airport or City:

Trip Planner

Search our weather history database for the weather conditions in past years. The results will help you decide how hot, cold, wet, or windy it might be!

Date:

Astronomy

Oct. 18, 2012 Rise Set
Actual Time 7:06 AM CDT 6:13 PM CDT
Civil Twilight 6:39 AM CDT 6:39 PM CDT
Nautical Twilight 6:09 AM CDT 7:10 PM CDT
Astronomical Twilight 5:39 AM CDT 7:40 PM CDT
Moon 10:42 AM CDT (10/18) 8:52 PM CDT (10/18)
Length of Visible Light 12h 00m
Length of Day
11h 07m
Waxing Crescent, 14% of the Moon is Illuminated
Oct 18
Waxing Crescent
Oct 21
First Quarter
Oct 29
Full
Nov 6
Last Quarter
Nov 13
New

Hourly Weather History & Observations

Time (CDT) Temp. Dew Point Humidity Pressure Visibility Wind Dir Wind Speed Gust Speed Precip Events Conditions
12:53 AM 55.9 °F 52.0 °F 87% 29.61 in 10.0 mi West 6.9 mph - N/A   Clear
1:53 AM 54.0 °F 51.1 °F 90% 29.63 in 10.0 mi West 8.1 mph - N/A   Clear
2:53 AM 53.1 °F 48.9 °F 86% 29.65 in 10.0 mi West 8.1 mph - N/A   Clear
3:53 AM 52.0 °F 48.9 °F 89% 29.67 in 10.0 mi WSW 9.2 mph - N/A   Clear
4:53 AM 51.1 °F 48.0 °F 89% 29.68 in 10.0 mi WSW 9.2 mph - N/A   Clear
5:53 AM 50.0 °F 46.0 °F 86% 29.67 in 10.0 mi SW 5.8 mph - N/A   Clear
6:53 AM 50.0 °F 46.9 °F 89% 29.70 in 10.0 mi SW 8.1 mph - N/A   Clear
7:53 AM 50.0 °F 46.9 °F 89% 29.72 in 10.0 mi SW 8.1 mph - N/A   Clear
8:53 AM 54.0 °F 46.9 °F 77% 29.72 in 10.0 mi SW 10.4 mph - N/A   Clear
9:53 AM 57.9 °F 46.0 °F 65% 29.73 in 10.0 mi SW 9.2 mph - N/A   Clear
10:53 AM 60.1 °F 42.1 °F 51% 29.73 in 10.0 mi WSW 12.7 mph 20.7 mph N/A   Clear
11:53 AM 62.1 °F 43.0 °F 50% 29.72 in 10.0 mi West 13.8 mph 25.3 mph N/A   Clear
12:53 PM 63.0 °F 39.0 °F 41% 29.70 in 10.0 mi WSW 11.5 mph 19.6 mph N/A   Clear
1:53 PM 64.9 °F 34.0 °F 32% 29.68 in 10.0 mi WSW 17.3 mph 24.2 mph N/A   Clear
2:53 PM 64.9 °F 32.0 °F 29% 29.67 in 10.0 mi WSW 20.7 mph 33.4 mph N/A   Scattered Clouds
3:53 PM 63.0 °F 33.1 °F 33% 29.67 in 10.0 mi WSW 21.9 mph 29.9 mph N/A   Partly Cloudy
4:53 PM 62.1 °F 30.9 °F 31% 29.68 in 10.0 mi WSW 19.6 mph 32.2 mph N/A   Clear
5:53 PM 59.0 °F 32.0 °F 36% 29.69 in 10.0 mi WSW 12.7 mph - N/A   Clear
6:53 PM 57.0 °F 33.1 °F 40% 29.70 in 10.0 mi SW 8.1 mph - N/A   Clear
7:53 PM 54.0 °F 34.0 °F 47% 29.70 in 10.0 mi SW 6.9 mph - N/A   Clear
8:53 PM 54.0 °F 34.0 °F 47% 29.70 in 10.0 mi SSW 8.1 mph - N/A   Clear
9:53 PM 53.1 °F 34.0 °F 48% 29.69 in 10.0 mi SSW 5.8 mph - N/A   Clear
10:53 PM 53.1 °F 34.0 °F 48% 29.67 in 10.0 mi SSW 9.2 mph - N/A   Clear
11:53 PM 53.1 °F 35.1 °F 50% 29.65 in 10.0 mi SSW 6.9 mph - N/A   Scattered Clouds